NKS70 KFLL-KMCO

Flight info

Callsign NKS70
Flight time N/A
Altitude 22000
Route FRSBE2 WAPOM MUNGI1
Aircraft A321/M-SDE3FGHIRWY/LB1

Departure

Time 2026-05-04 00:11
Airport Fort Lauderdale Hollywood International Airport (KFLL)

Arrival

Time N/A
Airport Orlando International Airport (KMCO)
Time Latitude Longitude Altitude Speed Heading
2026-05-03 22:53 26.07087 -80.14755 25 ft 0 kts 99°
2026-05-03 23:03 26.07087 -80.14758 34 ft 3 kts 99°
2026-05-03 23:03 26.07091 -80.14780 27 ft 3 kts 99°
2026-05-03 23:04 26.07093 -80.14802 24 ft 3 kts 81°
2026-05-03 23:04 26.07087 -80.14821 29 ft 1 kts 55°
2026-05-03 23:04 26.07087 -80.14822 29 ft 0 kts 55°
2026-05-03 23:06 26.07106 -80.14816 27 ft 5 kts 359°
2026-05-03 23:06 26.07112 -80.14817 26 ft 0 kts 352°
2026-05-03 23:11 26.07127 -80.14820 23 ft 6 kts 348°
2026-05-03 23:11 26.07172 -80.14845 23 ft 8 kts 326°
2026-05-03 23:12 26.07194 -80.14912 22 ft 11 kts 273°
2026-05-03 23:12 26.07166 -80.14993 22 ft 12 kts 233°
2026-05-03 23:12 26.07164 -80.15070 25 ft 12 kts 309°
2026-05-03 23:12 26.07242 -80.15126 19 ft 15 kts 353°
2026-05-03 23:13 26.07360 -80.15127 16 ft 18 kts
2026-05-03 23:13 26.07481 -80.15153 14 ft 18 kts 305°
2026-05-03 23:13 26.07491 -80.15298 11 ft 20 kts 272°
2026-05-03 23:13 26.07492 -80.15460 12 ft 21 kts 270°
2026-05-03 23:14 26.07493 -80.15620 14 ft 21 kts 270°
2026-05-03 23:14 26.07494 -80.15737 14 ft 6 kts 270°
2026-05-03 23:14 26.07494 -80.15769 14 ft 1 kts 270°
2026-05-03 23:14 26.07494 -80.15776 14 ft 4 kts 270°
2026-05-03 23:15 26.07494 -80.15790 14 ft 0 kts 270°
2026-05-03 23:15 26.07494 -80.15791 14 ft 1 kts 270°
2026-05-03 23:16 26.07494 -80.15834 15 ft 10 kts 270°
2026-05-03 23:16 26.07494 -80.15881 16 ft 0 kts 270°
2026-05-03 23:17 26.07494 -80.15883 16 ft 2 kts 270°
2026-05-03 23:17 26.07494 -80.15939 17 ft 9 kts 270°
2026-05-03 23:18 26.07494 -80.15970 18 ft 0 kts 270°
2026-05-03 23:36 26.07494 -80.15995 18 ft 8 kts 270°
2026-05-03 23:36 26.07494 -80.16025 19 ft 0 kts 270°
2026-05-03 23:38 26.07494 -80.16028 19 ft 3 kts 270°
2026-05-03 23:38 26.07495 -80.16071 20 ft 0 kts 271°
2026-05-03 23:40 26.07495 -80.16078 20 ft 0 kts 271°
2026-05-03 23:43 26.07495 -80.16093 20 ft 5 kts 271°
2026-05-03 23:44 26.07496 -80.16123 20 ft 3 kts 271°
2026-05-03 23:44 26.07496 -80.16139 20 ft 1 kts 271°
2026-05-03 23:44 26.07497 -80.16148 20 ft 0 kts 271°
2026-05-03 23:48 26.07497 -80.16149 20 ft 1 kts 271°
2026-05-03 23:49 26.07497 -80.16179 20 ft 4 kts 271°
2026-05-03 23:49 26.07497 -80.16214 19 ft 6 kts 270°
2026-05-03 23:49 26.07497 -80.16244 19 ft 0 kts 270°
2026-05-03 23:52 26.07497 -80.16247 19 ft 2 kts 270°
2026-05-03 23:52 26.07497 -80.16270 19 ft 3 kts 270°
2026-05-03 23:53 26.07497 -80.16272 19 ft 0 kts 270°
2026-05-03 23:54 26.07497 -80.16293 19 ft 6 kts 270°
2026-05-03 23:54 26.07497 -80.16329 18 ft 0 kts 270°
2026-05-03 23:55 26.07497 -80.16331 18 ft 1 kts 270°
2026-05-03 23:55 26.07497 -80.16341 18 ft 0 kts 270°
2026-05-03 23:57 26.07497 -80.16349 18 ft 4 kts 271°
2026-05-03 23:57 26.07498 -80.16394 18 ft 5 kts 270°
2026-05-03 23:57 26.07498 -80.16405 18 ft 0 kts 270°
2026-05-03 23:59 26.07498 -80.16421 12 ft 7 kts 270°
2026-05-03 23:59 26.07499 -80.16449 23 ft 0 kts 270°
2026-05-04 00:01 26.07499 -80.16452 19 ft 2 kts 270°
2026-05-04 00:01 26.07499 -80.16463 19 ft 0 kts 270°
2026-05-04 00:02 26.07499 -80.16464 19 ft 1 kts 270°
2026-05-04 00:02 26.07499 -80.16481 19 ft 0 kts 270°
2026-05-04 00:03 26.07499 -80.16525 19 ft 9 kts 270°
2026-05-04 00:03 26.07499 -80.16533 19 ft 0 kts 270°
2026-05-04 00:03 26.07499 -80.16534 19 ft 1 kts 270°
2026-05-04 00:04 26.07499 -80.16553 19 ft 4 kts 270°
2026-05-04 00:04 26.07499 -80.16556 19 ft 0 kts 270°
2026-05-04 00:05 26.07499 -80.16557 19 ft 1 kts 270°
2026-05-04 00:05 26.07500 -80.16598 18 ft 8 kts 278°
2026-05-04 00:06 26.07536 -80.16639 17 ft 8 kts 345°
2026-05-04 00:06 26.07542 -80.16640 17 ft 0 kts 350°
2026-05-04 00:07 26.07544 -80.16641 17 ft 2 kts 350°
2026-05-04 00:07 26.07583 -80.16643 16 ft 6 kts 359°
2026-05-04 00:07 26.07586 -80.16643 16 ft 0 kts 359°
2026-05-04 00:09 26.07638 -80.16643 15 ft 13 kts
2026-05-04 00:10 26.07693 -80.16584 16 ft 11 kts 84°
2026-05-04 00:10 26.07694 -80.16456 19 ft 39 kts 91°
2026-05-04 00:10 26.07694 -80.15863 17 ft 112 kts 90°
2026-05-04 00:10 26.07681 -80.14765 61 ft 164 kts 89°
2026-05-04 00:11 26.07657 -80.13513 779 ft 161 kts 86°
2026-05-04 00:11 26.07704 -80.12257 1507 ft 163 kts 86°
2026-05-04 00:11 26.07755 -80.10979 2083 ft 169 kts 87°
2026-05-04 00:11 26.07922 -80.09611 2349 ft 190 kts 71°
2026-05-04 00:12 26.08601 -80.08283 2576 ft 212 kts 49°